Lid_Strength_Index
12 11 12 12 13 14 14 14 15 15 16 16 16 16 16 16 17 17 17 18 19 19
12 12 13 13 13 14 14 15 15 16 16 17 16 17 17 18 19 18 19 19 19 19
12 13 14 14 15 15 15 15 16 17 17 18 18 18 19 20 21 19 20 19 18 19
14 14 15 15 15 16 17 16 17 17 18 19 20 20 20 20 19 19 18 18 18 17
15 15 15 16 16 16 17 17 18 18 18 19 19 20 19 20 19 20 19 19 19 18
16 15 16 17 17 17 17 18 18 18 18 18 19 19 20 19 19 20 20 20 20 19
16 16 16 17 17 16 17 17 17 17 18 18 18 18 19 19 19 19 19 18 17 17
16 16 16 16 17 17 17 17 18 18 18 18 17 17 18 18 18 18 18 18 17 17
17 16 17 17 18 18 18 18 18 18 18 18 17 16 15 16 18 18 18 18 18 17
18 18 18 18 18 19 19 19 19 19 19 19 19 15 15 15 17 17 18 18 17 17
18 18 19 18 19 19 19 19 20 20 19 19 18 16 15 15 15 16 16 16 16 16
18 19 19 19 20 20 19 19 19 18 18 18 17 15 14 14 15 15 15 14 15 15
18 19 19 19 19 19 18 18 17 17 16 16 17 14 14 13 14 15 15 14 14 14
18 19 18 19 19 18 19 18 19 19 18 18 17 17 14 13 14 14 15 15 15 14